Details From SOCA - Cayenne Rochambeau
To SMJP - Paramaribo Johan A Pengel Intl
Flight Number -
Tags generated
Created
Modified
Stats Distance 173 nm / 321 km
Max Altitude 0 ft / 0 m
Waypoints 2
Social Downloads 0
Likes 0
Share VATSIM

Download

Looking for another format? Having issues loading an existing format? Contact us
Advertisement - Login to hide

Notes

Basic altitude profile: - Ascent Rate: 500ft/min - Ascent Speed: 90kts - Cruise Altitude: 35000ft - Cruise Speed: 95kts - Descent Rate: 500ft/min - Descent Speed: 100kts Options: - Use NATs: yes - Use PACOTS: yes - Use low airways: no - Use high airways: no

Route

SOCA SMJP

ID Type Via Altitude Latitude Longitude Leg Dist Tot Dist Heading (true) Name
O SOCA APT - 0 ft / 0 m 4.81981˚ -52.36045˚ - 0 nm - Cayenne Rochambeau
O SMJP APT - 0 ft / 0 m 5.45283˚ -55.18778˚ 173 nm 173 nm 283° / 283° Paramaribo Johan A Pengel Intl

Altitude Profile

Advertisement - Login to hide

Weather


0- 5 10 15 20 25 30 35+ Temperature / ° C

Clouds and Precipitation
Forecast for 2018-05-24 00:00 UTC. Updated 5 minutes ago

Ground ~20,000 ft ~40,000 ft Winds

SOCA

Details ICAO SOCA (CAY)
Name Cayenne Rochambeau
Region French Guiana
Timezone America/Cayenne (UTC-3.0)
Stats Elevation 26 ft / 8 m (AMSL)
Location 4.819807° -52.360446°
Runways 1
Magnetic Variation 18.398° W

METAR

SOCA 232300Z AUTO 00000KT 9999 FEW013/// SCT062/// BKN100/// ///CB 24/24 Q1014 TEMPO 2000 SHRA

Decode

TAF

TAF SOCA 231600Z 2318/2418 08012KT 9999 FEW015 SCT025 BKN040 TEMPO 2318/2418 2000 SHRA SCT012TCU PROB40 TEMPO 2318/2321 TSRA FEW010CB BECMG 2322/2324 VRB03KT FM241200 08012KT 9999 FEW015 SCT025 BKN040

Decode

Departure Runways

ID Width Length Bearing (true) Bearing (mag) Surface Threshold Offset Overrun Length
08 148 ft / 45 m 10,489 ft / 3,197 m 65.20° 83.60° Asphalt 0 ft / 0 m 244 ft / 74 m
26 148 ft / 45 m 10,489 ft / 3,197 m 245.20° 263.60° Asphalt 0 ft / 0 m 0 ft / 0 m

SMJP

Details ICAO SMJP (PBM)
Name Paramaribo Johan A Pengel Intl
Region Suriname
Timezone America/Paramaribo (UTC-3.0)
Stats Elevation 59 ft / 18 m (AMSL)
Location 5.452831° -55.187783°
Runways 1
Magnetic Variation 17.564° W

METAR

SMJP 232300Z 08003KT 9999 TS FEW018CB SCT030 25/24 Q1015 NOSIG

Decode

TAF

Not found

Destination Runways

ID Width Length Bearing (true) Bearing (mag) Surface Threshold Offset Overrun Length
11 148 ft / 45 m 11,415 ft / 3,479 m 89.66° 107.22° Concrete 0 ft / 0 m 164 ft / 50 m
29 148 ft / 45 m 11,415 ft / 3,479 m 269.67° 287.23° Concrete 0 ft / 0 m 197 ft / 60 m

Approach Navaids

Runway Type Ident Frequency Range Bearing (true) Bearing (mag) Slope Elevation
11 Localiser IZAN 109.90 MHz 18 nm / 33 km 89.67° 107.23° - 59 ft / 18 m (AMSL)
11 Glidescope IZAN 109.90 MHz 10 nm / 19 km 89.67° 107.23° 3.00° 56 ft / 17 m (AMSL)

Popular Alternatives